Regional Weather Roundup
Issued by NWS Northern Indiana

Home | Current Version | Previous Version | Graphics & Text | Print | Product List | Glossary On
Versions: 1 2 3 4 5 6 7 8 9 10 11 12 13 14 15 16 17 18 19 20 21 22 23 24 25 26 27 28 29 30 31 32 33 34 35 36 37 38 39 40 41 42 43 44 45 46 47 48 49 50
000
ASUS43 KIWX 310700
RWRIWX

KIWX WEATHER ROUNDUP
NATIONAL WEATHER SERVICE NORTHERN INDIANA
300 AM EDT WED AUG 31 2016

NOTE: "FAIR" INDICATES FEW OR NO CLOUDS BELOW 12,000 FEET WITH NO
SIGNIFICANT WEATHER AND/OR OBSTRUCTIONS TO VISIBILITY.

* THESE STATIONS ARE NOT UNDER NWS QUALITY CONTROL. THEY ALSO MAY NOT
  REPORT WEATHER SUCH AS PRECIPITATION OR FOG.

INZ001>027-310800-
NORTHERN INDIANA

CITY           SKY/WX    TMP DP  RH WIND       PRES   REMARKS
VALPARAISO     CLOUDY    72  70  93 NW3       30.04F
KNOX*          CLOUDY    70  61  73 CALM      30.03F
SOUTH BEND     PTCLDY    70  69  97 CALM      30.03F
GOSHEN         CLOUDY    71  68  90 SW5       30.03F
MONTICELLO*    CLOUDY    71  66  86 CALM      30.03F
ANGOLA*        CLEAR     70  61  73 W3        30.02F
FORT WAYNE     CLOUDY    69  67  93 CALM      30.03F FOG
PERU/GRISSOM   CLOUDY    70  70 100 SW3       30.03F

$$
INZ028>050-310800-
CENTRAL INDIANA

CITY           SKY/WX    TMP DP  RH WIND       PRES   REMARKS
LAFAYETTE      CLOUDY    70  70 100 CALM      30.03F
KOKOMO*        CLOUDY    68  66  94 NW6       30.04F
MUNCIE*        CLOUDY    70  68  93 SW3       30.04S
INDIANAPOLIS   CLOUDY    71  70  96 CALM      30.03F

$$
MIZ043>046-050>051-056>058-064>065-071>073-077>080-310800-
SOUTHWEST LOWER MICHIGAN

CITY           SKY/WX    TMP DP  RH WIND       PRES   REMARKS
BATTLE CREEK   CLOUDY    68  68 100 CALM      30.04F
BENTON HARBOR  CLOUDY    72  70  93 CALM      30.02F FOG
COLDWATER*     CLOUDY    68  68 100 CALM      30.03F FOG
HILLSDALE*     CLOUDY    68  67  95 CALM      30.02F FOG
HOLLAND        CLOUDY    71  69  93 CALM      30.03S
GRAND RAPIDS   CLOUDY    72  69  90 W6        30.03S FOG
KALAMAZOO      CLOUDY    70  67  90 CALM      30.03F
STURGIS*       CLOUDY    69  67  94 CALM      30.02F FOG
THREE RIVERS*  FAIR      70  69  98 CALM      30.03F FOG

$$
OHZ001>008-015>018-024>025-310800-
NORTHWEST OHIO

CITY           SKY/WX    TMP DP  RH WIND       PRES   REMARKS
DEFIANCE       FOG       69  66  90 CALM      30.02F VSB 3/4
FINDLAY        CLOUDY    71  68  90 NW5       30.02F
TOLEDO EXPRESS CLOUDY    69  69 100 CALM      30.01F
TOLEDO METCALF MOCLDY    73  71  93 MISG      30.02F
LIMA           CLOUDY    69  69 100 CALM      30.03F FOG

$$
AND FOR LAKE MICHIGAN COASTAL AND OPEN LAKE BUOY OBSERVATIONS

STATION/POSITION TEMP    WIND        PRES    VSBY  WAVE
                 AIR SEA DIR/SP/G                  HT/PER
                 (F)     (DEG/KT/KT) (MB)    (MI)  (FT/S)
CALUMET HARBOR    73      CALM  /  3 1016.9F
MICHIGAN CITY     73     320/  8/  8   N/A
BURNS HARBOR      74     330/  3/  6 1017.6F
SAINT JOSEPH      73      30/  1/  2 1017.3
SOUTH LAKE BUOY   74 75  260/  8/ 10 1016.3          0
4 MI NW BRIDGMAN  74 72  330/  4/  6 1016.7F         1
MICHIGAN CITY     74 73  350/  6/  8   N/A           1

$$
&&



USA.gov is the U.S. government's official web portal to all federal, state and local government web resources and services.